Regional Weather Roundup
Issued by NWS Northern Indiana

Home | Current Version | Previous Version | Graphics & Text | Print | Product List | Glossary On
Versions: 1 2 3 4 5 6 7 8 9 10 11 12 13 14 15 16 17 18 19 20 21 22 23 24 25 26 27 28 29 30 31 32 33 34 35 36 37 38 39 40 41 42 43 44 45 46 47 48 49 50
000
ASUS43 KIWX 061010
RWRIWX

KIWX WEATHER ROUNDUP
NATIONAL WEATHER SERVICE NORTHERN INDIANA
500 AM EST FRI MAR 06 2015

NOTE: "FAIR" INDICATES FEW OR NO CLOUDS BELOW 12,000 FEET WITH NO
SIGNIFICANT WEATHER AND/OR OBSTRUCTIONS TO VISIBILITY.

* THESE STATIONS ARE NOT UNDER NWS QUALITY CONTROL. THEY ALSO MAY NOT
  REPORT WEATHER SUCH AS PRECIPITATION OR FOG.

INZ001>027-061100-
NORTHERN INDIANA

CITY           SKY/WX    TMP DP  RH WIND       PRES   REMARKS
VALPARAISO     PTCLDY    -1  -5  82 SW5       30.49S WCI -11
MICHIGAN CITY* PTCLDY     3  -6  66 SW6       30.50S WCI  -8
LAPORTE*       PTCLDY     0  -4  82 SW5       30.49S WCI -10
KNOX*            N/A      1  -9  60 S5        30.50S WCI  -8
SOUTH BEND     PTCLDY     1  -5  75 SW6       30.48F WCI -10
GOSHEN         PTCLDY     1  -5  75 S6        30.49R WCI -10
MONTICELLO*    PTCLDY    -3  -5  87 S3        30.51F
LOGANSPORT*    MOCLDY    -4  -8  84 S5        30.52F WCI -15
ROCHESTER*     MOCLDY     3   0  85 CALM      30.51S
WARSAW*        PTCLDY     1  -4  78 CALM      30.49S
ANGOLA*        CLEAR     -6 -20  49 CALM      30.45S
FORT WAYNE     MOCLDY     0  -5  79 SW5       30.51S WCI -10
HUNTINGTON*    MOCLDY    -1  -7  74 CALM      30.51S
PERU/GRISSOM   MOCLDY    -1  -6  82 S3        30.50S
MARION*        MOCLDY    -6 -12  78 CALM      30.52R

$$
INZ028>050-061100-
CENTRAL INDIANA

CITY           SKY/WX    TMP DP  RH WIND       PRES   REMARKS
LAFAYETTE      PTCLDY    -3  -6  87 CALM      30.53F
KOKOMO*          N/A    N/A N/A N/A MISG        N/A
MUNCIE*        PTCLDY     4  -1  80 CALM      30.51S
INDIANAPOLIS   CLEAR      3  -3  76 W3        30.52S

$$
MIZ043>046-050>051-056>058-064>065-071>073-077>080-061100-
SOUTHWEST LOWER MICHIGAN

CITY           SKY/WX    TMP DP  RH WIND       PRES   REMARKS
BATTLE CREEK   MOCLDY     3  -2  79 SW7       30.43F WCI  -9
BENTON HARBOR  PTCLDY     3   0  87 S7        30.47F WCI  -9
COLDWATER*     MOCLDY     2  -2  82 SW7       30.45F WCI -10
HILLSDALE*     PTCLDY     2  -2  83 CALM      30.43S
HOLLAND        MOCLDY     4  -1  80 S7        30.44F WCI  -8
GRAND RAPIDS   PTCLDY     6   1  80 SW10      30.43F WCI  -9
KALAMAZOO      MOCLDY     0  -5  79 S6        30.45F WCI -12
STURGIS*       FAIR       0  -2  92 CALM      30.46S
THREE RIVERS*  FAIR       0  -4  83 S6        30.47S WCI -12

$$
OHZ001>008-015>018-024>025-061100-
NORTHWEST OHIO

CITY           SKY/WX    TMP DP  RH WIND       PRES   REMARKS
WAUSEON*       FAIR       1  -4  78 CALM      30.49F
DEFIANCE       PTCLDY     0  -5  79 CALM      30.51F
FINDLAY        MOCLDY     5   1  83 S3        30.50S
TOLEDO EXPRESS PTCLDY    -1  -5  82 CALM      30.50F
TOLEDO METCALF MOCLDY     4  -2  76 S3        30.52S
LIMA           PTCLDY     6   2  83 SE6       30.49F FOG     WCI  -4

$$
AND FOR LAKE MICHIGAN COASTAL AND OPEN LAKE BUOY OBSERVATIONS

STATION/POSITION TEMP    WIND        PRES    VSBY  WAVE
                 AIR SEA DIR/SP/G                  HT/PER
                 (F)     (DEG/KT/KT) (MB)    (MI)  (FT/S)
CALUMET HARBOR                       1031.0F
MICHIGAN CITY      5     180/  9/ 11   N/A
SAINT JOSEPH       6     150/  5/  9 1032.5R

$$
&&



USA.gov is the U.S. government's official web portal to all federal, state and local government web resources and services.